200 serials | agrar simulator 2011 registration code

Date Name Success Rate
2012-12-12 00:27:01 Agrar simulator 2011 70%
2012-12-12 00:27:01 Agrar Simulator 2012 60%
2011-09-08 10:56:11 FontLook v3.1 Registration Code 86%
2011-09-08 11:42:43 Nic O'Matic 1.6 Registration Code 50%
2011-09-08 11:42:43 Nic O'Matic v1.6 Registration Code 55%
2011-09-08 12:54:14 TimeSlips 10.5 enterprise - with registration code! 0%
2012-12-13 05:12:00 Registration Code For PDFZilla Giveaway 0%
2012-12-13 05:12:00 Registration code:-826510-16101-266644 71%
2012-12-12 11:35:11 Farming simulator 2011 0%
2012-12-12 17:21:53 Landwirtschafts simulator 2011 13%
2012-12-12 17:21:55 Landwirtschafts Simulator 2011 V.1 0%
2012-12-13 19:13:25 Woodcutter Simulator 2011 48%
2012-12-12 11:35:13 Farming simulator 2011 pro farm 0%
2012-12-12 11:35:15 Farming Simulator 2011 [ENGLISH version] 0%
2012-12-12 16:48:04 Kaspersky Internet Security 2011 Subscription (Expiration date 27.03.2011) 0%
2012-12-13 13:56:59 TuneUp Utilities 2011 v.10.0.3000.102 [Working Latest -New] [March 2011] 0%
2012-12-12 22:41:25 NOD 32 ESET,2011 Pre-Cracked Antivirus v3.0.6.2011 {FULL version} 100%
2012-12-12 07:13:40 David.fx 2011 Basic-Edition 2011, 2 User 0%
2012-12-13 13:56:35 TuneUp Utilities 2011 10.0.2011.65 Final + Serial-[HB] 80%
2012-12-13 13:56:41 TuneUp Utilities 2011 Build 10.0.2011.65 - Final 0%
2012-12-13 13:56:47 TuneUp Utilities 2011 Final Built 10.0.2011.65 0%
2011-09-08 12:56:11 TuneUp Utilities 2011 (French) 10.0.2011.65 63%
2011-09-08 12:56:11 TuneUp Utilities 2011 (German) 10.0.2011.66 61%
2012-12-13 13:56:20 TuneUp Utilities 2011 (August - 2011) 0%
2012-12-13 13:56:23 TuneUp Utilities 2011 (JULY - 2011) 0%
2012-12-13 13:56:38 TuneUp Utilities 2011 Build 10.0.2011.65 0%
2011-09-08 12:56:11 TuneUp Utilities 2011 10.0.2011.65 36%
2012-12-13 13:56:17 TuneUp Utilities 2011 23-03-2011 0%
2012-12-13 13:56:26 TuneUp Utilities 2011 (MAY - 2011) 0%
2012-12-13 13:57:08 TuneUp Utilities 2011.v10.0.2011.65 0%
2012-12-13 13:57:11 TuneUp Utilities 2011.v10.0.2011.66 0%
2011-09-08 10:42:09 DAS Registration 1.5.2 69%
2011-09-08 10:42:09 DAS Registration For CW5 0%
2011-09-08 10:42:09 DAS Registration v1.5.2 0%
2009-10-17 06:27:02 Lazarus Registration DLL V1.0 59%
2009-10-22 23:48:48 MemoriesonTV Registration 0%
2009-10-22 23:49:42 Registration Wizard 40%
2011-09-08 10:06:47 AnetHelpTool v4.02 Registration 52%
2011-09-08 10:22:13 ByeLines Registration 60%
2011-09-08 10:57:42 Ftgate Registration 63%
2011-09-08 11:15:16 Infodex v2.10 Registration 0%
2011-09-08 11:25:08 Lazarus Registration DLL v1.0 0%
2011-09-08 11:27:46 Mac Opener v3.0 Registration 57%
2011-09-08 11:32:59 mIRC v4.5+ Registration 60%
2011-09-08 11:32:59 mIRC v4.52 Registration 60%
2011-09-08 12:37:02 Quant v2.0 Registration 0%
2011-09-08 12:41:14 Registration Suite 1.0 60%
2011-09-08 12:41:14 Registration Suite v1.0 60%
2011-09-08 12:41:14 Registration Wizard Pro 5.01 46%
2011-09-08 12:41:14 Registration Wizard Pro v5.01 60%
2011-09-08 13:18:59 WinHacker 95 v2.02 Registration 57%
2012-12-13 05:12:00 Registration Key : 526EFEF086E09600449E667EA2DAE8E2E6D642BC 83%
2009-10-22 23:27:21 Ardamax Keylogger 2.9 Registration 56%
2009-10-22 23:48:49 Microsoft Registration Hacker - 39%
2009-10-22 23:49:57 SoudForge ALL (No Registration Requiered) 0%
2009-10-22 23:50:26 Valve's Registration Armor Key-Gen 60%
2011-09-08 10:21:42 Browserola v1.01 Temp. Registration 0%
2011-09-08 11:31:51 Microsoft Registration Hacker 0%
2011-09-08 11:31:51 Microsoft Registration Hacker - 0%
2011-09-08 11:31:51 Microsoft Registration HackerMSREGHACK 0%
2011-09-08 11:32:07 Microstation v5.xx.xx & 95 FULL REGISTRATION 48%
2011-09-08 12:34:57 PolyTrans V1.2E Registration Activator CD-Key 62%
2011-09-08 12:34:57 PolyView v2.9b16 Registration 0%
2011-09-08 12:54:09 Time Registration (German) 1.10 0%
2011-09-08 12:59:30 Super Collapse Registration 100%
2011-09-08 13:23:15 Yipe! II for Windows Registration #154 0%
2012-12-13 08:49:53 Softwarenetz Time Registration v1.10 0%
2012-12-13 08:49:56 Softwarenetz Time Registration v1.14 0%
2012-12-13 15:34:10 Valve's Registration Armor Key-Gen 0%
2009-10-22 23:48:17 Internet Download Manager Registration 50%
2011-09-08 10:25:56 Cheyenne Bitware V4.0 Registration Number 60%
2011-09-08 11:31:51 Microsoft Registration Hacker MSREGHACK 80%
2011-09-08 11:31:51 Microsoft Visual Basic 5 registration cd key 72%
2012-12-12 08:07:32 Download avast 5.0.667 Antivirus registration 0%
2012-12-13 05:12:00 Registration key for x-3gp-video-converter-38540 54%
2012-12-13 13:12:40 Total Image Converter Registration Key 57%
2012-12-12 03:26:56 AVG PC Tuneup 2011 (01/09/2011) 0%
2012-12-12 03:26:58 AVG PC Tuneup 2011 (JUL 2011) 0%
2012-12-12 03:27:00 AVG PC Tuneup 2011 (May 07/2011 ) 0%
2011-09-08 11:30:16 MediaBlaze 98 v1.01 Win95/NT User: delphic Registration 0%
2009-10-22 23:49:02 Norton Internet Security 2005 Registration Guide 0%
2011-09-08 09:58:40 Acoustica Mixcraft v1.10 Build 15 Registration Info by MaBi 60%
2012-12-12 19:40:26 Microsoft Visual Basic 2008 Express Edition Registration key 20%
2009-10-22 23:49:23 PIC Simulator IDE V4.2 58%
2009-10-22 23:49:53 Simulator X 66%
2009-10-22 23:50:57 Z80 Simulator IDE V8.60 0%
2011-09-08 11:03:16 GPS Simulator 3.2.1 0%
2011-09-08 11:25:10 LCD Simulator 1.0.13 0%
2011-09-08 11:25:10 LCD Simulator v1.0.13 0%
2011-09-08 11:42:43 NHL Simulator 3.1 0%
2011-09-08 11:42:43 NHL Simulator 3.1.2 0%
2011-09-08 11:42:43 NHL Simulator v3 1 0%
2011-09-08 11:42:43 NHL Simulator v3.1.2 0%
2011-09-08 12:33:30 PIC Simulator IDE v4.2 0%
2011-09-08 12:33:30 PIC Simulator v2.1 71%
2011-09-08 12:33:30 PIC Simulator v2.6 70%
2011-09-08 13:15:32 Wan Simulator 1.0 0%
2011-09-08 13:15:32 Wan Simulator v1.0 0%
2011-09-08 13:23:30 Z80 Simulator IDE v8.60 0%
2011-09-08 13:23:30 Z80 Simulator v7.4 0%
2011-09-08 13:23:30 Z80 Simulator v7.5 0%
2011-09-08 13:23:30 Z80 Simulator v8.3 0%
2009-10-17 06:32:40 Starfield Simulator Pro V1.0 By S0m 0%
2009-10-23 07:01:26 8085 Simulator IDE V1.80 0%
2009-10-22 23:44:51 Boson Net Simulator 5.5 0%
2009-10-22 23:45:51 CertExams.com Simulator 51%
2009-10-22 23:47:52 FLIGHT SIMULATOR 64%
2009-10-22 23:47:52 Flight Simulator 95 0%
2009-10-22 23:47:52 Flight Simulator 98 50%
2009-10-22 23:47:52 Flight Simulator 98: OEM 0%
2009-10-22 23:47:52 Flight Simulator X 45%
2009-10-22 23:47:52 Fligth Simulator X 0%
2009-10-22 23:48:48 Microprocessor Simulator 5.0 0%
2009-10-22 23:48:52 MS Flight Simulator S/n: 95 0%
2009-10-22 23:48:52 MS Flight Simulator S/n: 98:(OEM) 0%
2009-10-22 23:49:41 Rail Simulator 84%
2009-10-22 23:49:51 Sail Simulator 4.2 0%
2009-10-22 23:49:51 Sail Simulator S/n: 4.2 0%
2009-10-22 23:49:51 Sail Simulator V4.2 0%
2009-10-22 23:49:53 Ship Simulator 59%
2009-10-22 23:49:53 Siki Pro Simulator 0%
2009-10-22 23:49:54 Ski Stunt Simulator 68%
2009-10-22 23:49:54 SkiStunt Simulator 0%
2009-10-22 23:49:54 SkiStunt Simulator S/n: 0%
2009-10-22 23:49:59 Starfield Simulator Pro V1.0 0%
2009-10-22 23:50:34 Webspeed Simulator 2.11 0%
2011-09-08 09:48:35 8085 Simulator IDE v1.80 40%
2011-09-08 09:48:35 8085 Simulator v1.5 0%
2011-09-08 10:19:38 BHK Alcohol Simulator 1.1 0%
2011-09-08 10:19:41 BHK Alcohol Simulator v1.1 0%
2011-09-08 10:21:11 Boson Net Simulator v5.5 0%
2011-09-08 10:55:41 Flight Simulator 60%
2011-09-08 10:55:41 Flight Simulator 4.0 0%
2011-09-08 10:55:41 Flight Simulator 95 0%
2011-09-08 10:55:41 Flight Simulator 98 0%
2011-09-08 10:55:41 Flight Simulator 98: OEM 0%
2011-09-08 10:55:41 Flight Simulator v4.0 0%
2011-09-08 10:55:41 Flight Simulator Win 95 0%
2011-09-08 11:31:20 Microprocessor Simulator 5.0 0%
2011-09-08 11:34:56 MS Flight Simulator 95 0%
2011-09-08 11:34:56 MS Flight Simulator 98: OEM 0%
2011-09-08 11:42:43 NHL Simulator v3.1.2 by ORiON 0%
2011-09-08 12:25:00 MS Flight Simulator 95 0%
2011-09-08 12:25:00 MS Flight Simulator 98: OEM 0%
2011-09-08 12:35:32 Power Age Sky Simulator 3.0 0%
2011-09-08 12:35:32 Power Age Sky Simulator v3.0 80%
2011-09-08 12:40:09 Rail Simulator 80%
2011-09-08 12:45:04 Sail Simulator 4.2 0%
2011-09-08 12:45:04 Sail Simulator s/n: 4.2 0%
2011-09-08 12:45:04 Sail Simulator v4.2 0%
2011-09-08 12:47:57 Simulator 2003 2.0.0.196 0%
2011-09-08 12:48:14 Ski Stunt Simulator 100%
2011-09-08 12:48:14 Ski Stunt Simulator 1.1 20%
2011-09-08 12:48:14 Ski Stunt Simulator v1.1 0%
2011-09-08 12:48:17 SkiStunt Simulator 0%
2011-09-08 12:58:19 Starfield Simulator Pro 1.0 0%
2011-09-08 13:12:56 VisualProbe x86 Simulator v1.0 for Win 57%
2011-09-08 13:12:56 VisualProbe x86 Simulator v1.0 Win 0%
2011-09-08 13:16:49 WebSpeed Simulator 2.10 0%
2011-09-08 13:16:49 Webspeed Simulator v1.11 0%
2011-09-08 13:16:49 Webspeed simulator v2.11 0%
2012-12-11 22:44:48 3D driving simulator 2.2.6 20%
2012-12-12 05:53:05 City bus simulator 67%
2012-12-12 11:08:07 Eurotruck simulator 2 34%
2012-12-12 12:03:35 Fireworks simulator 2.0 97%
2012-12-13 02:33:47 Police Simulator 55%
2012-12-13 06:44:55 Scania Simulator 0%
2012-12-13 07:26:27 Ship SIMULATOR V1.1 60%
2012-12-13 07:26:30 Ship SIMULATOR V1.3 0%
2012-12-13 08:21:33 Snowcat simulator 100%
2012-12-13 13:19:37 Tower Simulator 0%
2012-12-13 13:28:40 Trainz simulator 12 25%
2012-12-13 19:13:19 Woodcutter Simulator 98%
2009-10-17 06:29:23 Oshon Software PIC Simulator IDE V5.91 0%
2009-10-17 06:29:23 Oshon Software PIC Simulator IDE V5.92 0%
2009-10-17 06:29:23 Oshon Software Z80 Simulator IDE V9.42 100%
2009-10-17 06:32:15 Ship Simulator 2006 30%
2009-10-23 07:01:19 3D Driving-School 3D Simulator 67%
2009-10-22 23:27:11 Achterbahn - Simulator 2009 76%
2009-10-22 23:45:54 Combat Flight Simulator 3 0%
2009-10-22 23:47:42 Euro Truck Simulator 40%
2009-10-22 23:47:52 Flight Simulator 2004 80%
2009-10-22 23:47:53 FlySim 1.5.1 - Fly Fishing Simulator 85%
2009-10-22 23:47:53 FlySim 1.5.1 Fly Fishing Simulator 56%
2009-10-22 23:48:37 Landwirtschafts Simulator 2009 13%
2009-10-22 23:48:37 Landwirtschafts Simulator 2009 0%
2009-10-22 23:48:37 Landwirtschafts-Simulator 2009 0%
2009-10-22 23:48:48 Microfoft Flight Simulator X 0%
2009-10-22 23:48:49 Microsoft Flight Simulator X 24%
2009-10-22 23:48:49 Microsoft Flight Simulator X 57%
2009-10-22 23:48:49 Microsoft Train Simulator 57%
2009-10-22 23:48:52 MS Flight Simulator S/n: 2000 0%
2009-10-22 23:48:52 MS Flight Simulator X Deluxe 60%
2009-10-22 23:49:13 Oshon Software PIC Simulator IDE V5.91 20%
2009-10-22 23:49:13 Oshon Software PIC Simulator IDE V5.92 50%
2009-10-22 23:49:13 Oshon Software Z80 Simulator IDE V9.42 0%
2009-10-22 23:49:51 Schiff Simulator 2008 71%
2009-10-22 23:49:51 Schiff Simulator 2008 V. 1.4.2. 60%
2009-10-22 23:49:53 Ship Simulator 2006 27%
2009-10-22 23:49:53 Ship Simulator 2008 65%